Time,TemperatureF,DewpointF,PressureIn,WindDirection,WindDirectionDegrees,WindSpeedMPH,WindSpeedGustMPH,Humidity,HourlyPrecipIn,Conditions,Clouds,dailyrainin,SoftwareType,DateUTC
2013-07-12 00:01:00,72.6,69.8,29.78,SSW,196,0.0,0.0,91,0.00,,,0.00,Wunderground v.1.15,2013-07-12 04:01:00,
2013-07-12 00:10:00,72.4,69.6,29.78,SSW,196,0.0,0.0,91,0.00,,,0.00,Wunderground v.1.15,2013-07-12 04:10:00,
2013-07-12 00:15:00,72.1,69.6,29.78,SSW,196,0.0,0.0,92,0.00,,,0.00,Wunderground v.1.15,2013-07-12 04:15:00,
2013-07-12 00:25:00,72.0,69.5,29.78,SSW,196,0.0,0.0,92,0.00,,,0.00,Wunderground v.1.15,2013-07-12 04:25:00,
2013-07-12 00:30:00,71.9,69.4,29.79,SSW,196,0.0,0.0,92,0.00,,,0.00,Wunderground v.1.15,2013-07-12 04:30:00,
2013-07-12 00:40:00,71.7,69.3,29.78,SSW,196,0.0,0.0,92,0.00,,,0.00,Wunderground v.1.15,2013-07-12 04:40:00,
2013-07-12 00:50:00,71.5,69.4,29.78,SSW,196,0.0,0.0,93,0.00,,,0.00,Wunderground v.1.15,2013-07-12 04:50:00,
2013-07-12 00:55:00,71.4,69.3,29.78,SSW,196,0.0,0.0,93,0.00,,,0.00,Wunderground v.1.15,2013-07-12 04:55:00,
2013-07-12 01:05:00,71.3,69.2,29.78,SSW,196,0.0,0.0,93,0.00,,,0.00,Wunderground v.1.15,2013-07-12 05:05:00,
2013-07-12 01:15:00,71.3,69.5,29.77,SSW,196,0.0,0.0,94,0.00,,,0.00,Wunderground v.1.15,2013-07-12 05:15:00,
2013-07-12 01:20:00,71.3,69.5,29.77,SSW,196,0.0,0.0,94,0.00,,,0.00,Wunderground v.1.15,2013-07-12 05:20:00,
2013-07-12 01:30:00,71.1,69.3,29.77,SSW,196,0.0,0.0,94,0.00,,,0.00,Wunderground v.1.15,2013-07-12 05:30:00,
2013-07-12 01:40:00,70.9,69.1,29.76,SW,223,0.0,0.0,94,0.00,,,0.00,Wunderground v.1.15,2013-07-12 05:40:00,
2013-07-12 01:50:00,70.7,68.9,29.76,SW,223,0.0,0.0,94,0.00,,,0.00,Wunderground v.1.15,2013-07-12 05:50:00,
2013-07-12 02:00:00,70.5,68.7,29.76,SW,227,0.0,0.0,94,0.00,,,0.00,Wunderground v.1.15,2013-07-12 06:00:00,
2013-07-12 02:05:00,70.4,68.9,29.76,SW,227,0.0,0.0,95,0.00,,,0.00,Wunderground v.1.15,2013-07-12 06:05:00,
2013-07-12 02:15:00,70.3,68.8,29.77,SW,227,0.0,0.0,95,0.00,,,0.00,Wunderground v.1.15,2013-07-12 06:15:00,
2013-07-12 02:25:00,70.1,68.6,29.77,SW,227,0.0,0.0,95,0.00,,,0.00,Wunderground v.1.15,2013-07-12 06:25:00,
2013-07-12 02:35:00,70.0,68.5,29.77,SW,227,0.0,0.0,95,0.00,,,0.00,Wunderground v.1.15,2013-07-12 06:35:00,
2013-07-12 02:45:00,69.8,68.3,29.77,SW,227,0.0,0.0,95,0.00,,,0.00,Wunderground v.1.15,2013-07-12 06:45:00,
2013-07-12 02:50:00,69.7,68.2,29.77,SW,227,0.0,0.0,95,0.00,,,0.00,Wunderground v.1.15,2013-07-12 06:50:00,
2013-07-12 03:00:00,69.6,68.1,29.76,SW,227,0.0,0.0,95,0.00,,,0.00,Wunderground v.1.15,2013-07-12 07:00:00,
2013-07-12 03:10:00,69.4,67.9,29.77,SW,227,0.0,0.0,95,0.00,,,0.00,Wunderground v.1.15,2013-07-12 07:10:00,
2013-07-12 03:20:00,69.3,67.8,29.77,SW,227,0.0,0.0,95,0.00,,,0.00,Wunderground v.1.15,2013-07-12 07:20:00,
2013-07-12 03:30:00,69.2,68.0,29.76,SW,227,0.0,0.0,96,0.00,,,0.00,Wunderground v.1.15,2013-07-12 07:30:00,
2013-07-12 03:40:00,69.2,68.0,29.77,SW,227,0.0,0.0,96,0.00,,,0.00,Wunderground v.1.15,2013-07-12 07:40:00,
2013-07-12 03:50:00,69.2,68.0,29.77,SW,227,0.0,0.0,96,0.00,,,0.00,Wunderground v.1.15,2013-07-12 07:50:00,
2013-07-12 03:55:00,69.1,67.9,29.77,SW,227,0.0,0.0,96,0.00,,,0.00,Wunderground v.1.15,2013-07-12 07:55:00,
2013-07-12 04:05:00,69.0,67.8,29.76,SW,227,0.0,0.0,96,0.00,,,0.00,Wunderground v.1.15,2013-07-12 08:05:00,
2013-07-12 04:15:00,69.1,67.9,29.77,SW,227,0.0,0.0,96,0.00,,,0.00,Wunderground v.1.15,2013-07-12 08:15:00,
2013-07-12 04:20:00,69.2,68.3,29.77,SW,227,0.0,0.0,97,0.00,,,0.00,Wunderground v.1.15,2013-07-12 08:20:00,
2013-07-12 04:30:00,69.2,68.0,29.76,SW,227,0.0,0.0,96,0.00,,,0.00,Wunderground v.1.15,2013-07-12 08:30:00,
2013-07-12 04:40:00,69.2,68.0,29.76,SW,227,0.0,0.0,96,0.00,,,0.00,Wunderground v.1.15,2013-07-12 08:40:00,
2013-07-12 04:45:00,69.1,67.9,29.77,SW,227,0.0,0.0,96,0.00,,,0.00,Wunderground v.1.15,2013-07-12 08:45:00,
2013-07-12 04:55:00,69.1,68.2,29.76,SW,227,0.0,0.0,97,0.00,,,0.00,Wunderground v.1.15,2013-07-12 08:55:00,
2013-07-12 05:05:00,69.1,67.9,29.77,SW,227,0.0,0.0,96,0.00,,,0.00,Wunderground v.1.15,2013-07-12 09:05:00,
2013-07-12 05:15:00,69.1,67.9,29.77,SW,227,0.0,0.0,96,0.00,,,0.00,Wunderground v.1.15,2013-07-12 09:15:00,
2013-07-12 05:25:00,69.1,68.2,29.77,SW,227,0.0,0.0,97,0.00,,,0.00,Wunderground v.1.15,2013-07-12 09:25:00,
2013-07-12 05:35:00,69.0,68.1,29.77,SW,227,0.0,0.0,97,0.00,,,0.00,Wunderground v.1.15,2013-07-12 09:35:00,
2013-07-12 05:45:00,69.0,67.8,29.77,SW,227,0.0,0.0,96,0.00,,,0.00,Wunderground v.1.15,2013-07-12 09:45:00,
2013-07-12 05:55:00,68.8,67.6,29.77,SW,227,0.0,0.0,96,0.00,,,0.00,Wunderground v.1.15,2013-07-12 09:55:00,
2013-07-12 06:05:00,68.8,67.6,29.78,SW,227,0.0,0.0,96,0.00,,,0.00,Wunderground v.1.15,2013-07-12 10:05:00,
2013-07-12 06:10:00,68.8,67.6,29.78,SW,229,0.0,0.0,96,0.00,,,0.00,Wunderground v.1.15,2013-07-12 10:10:00,
2013-07-12 06:20:00,68.7,67.5,29.78,SW,229,0.0,0.0,96,0.00,,,0.00,Wunderground v.1.15,2013-07-12 10:20:00,
2013-07-12 06:30:00,68.5,67.3,29.78,SW,229,0.0,0.0,96,0.00,,,0.00,Wunderground v.1.15,2013-07-12 10:30:00,
2013-07-12 06:40:00,68.5,67.6,29.78,SW,229,0.0,0.0,97,0.00,,,0.00,Wunderground v.1.15,2013-07-12 10:40:00,
2013-07-12 06:50:00,68.4,67.5,29.78,SW,229,0.0,0.0,97,0.00,,,0.00,Wunderground v.1.15,2013-07-12 10:50:00,
2013-07-12 07:00:00,68.5,67.6,29.78,SW,229,0.0,0.0,97,0.00,,,0.00,Wunderground v.1.15,2013-07-12 11:00:00,
2013-07-12 07:05:00,68.7,67.8,29.79,SW,229,0.0,0.0,97,0.00,,,0.00,Wunderground v.1.15,2013-07-12 11:05:00,
2013-07-12 07:15:00,69.0,68.1,29.79,SW,229,0.0,0.0,97,0.00,,,0.00,Wunderground v.1.15,2013-07-12 11:15:00,
2013-07-12 07:25:00,69.2,68.3,29.79,SW,229,0.0,0.0,97,0.00,,,0.00,Wunderground v.1.15,2013-07-12 11:25:00,
2013-07-12 07:35:00,69.5,68.6,29.79,SW,229,0.0,0.0,97,0.00,,,0.00,Wunderground v.1.15,2013-07-12 11:35:00,
2013-07-12 07:45:00,69.7,68.8,29.79,SW,229,0.0,0.0,97,0.00,,,0.00,Wunderground v.1.15,2013-07-12 11:45:00,
2013-07-12 07:55:00,69.8,68.9,29.80,SW,229,0.0,0.0,97,0.00,,,0.00,Wunderground v.1.15,2013-07-12 11:55:00,
2013-07-12 08:00:00,69.8,68.9,29.80,SW,229,0.0,0.0,97,0.00,,,0.00,Wunderground v.1.15,2013-07-12 12:00:00,
2013-07-12 08:10:00,70.1,69.2,29.80,SW,229,0.0,0.0,97,0.00,,,0.00,Wunderground v.1.15,2013-07-12 12:10:00,
2013-07-12 08:15:00,70.2,69.3,29.81,SW,229,0.0,0.0,97,0.00,,,0.00,Wunderground v.1.15,2013-07-12 12:15:00,
2013-07-12 08:25:00,70.3,69.4,29.81,SW,229,0.0,0.0,97,0.00,,,0.00,Wunderground v.1.15,2013-07-12 12:25:00,
2013-07-12 08:35:00,70.2,69.0,29.81,SW,229,0.0,0.0,96,0.00,,,0.00,Wunderground v.1.15,2013-07-12 12:35:00,
2013-07-12 08:45:00,70.6,69.7,29.81,SW,228,0.0,0.0,97,0.00,,,0.00,Wunderground v.1.15,2013-07-12 12:45:00,
2013-07-12 08:55:00,71.1,69.9,29.81,SW,228,0.0,0.0,96,0.00,,,0.00,Wunderground v.1.15,2013-07-12 12:55:00,
2013-07-12 09:00:00,71.2,70.0,29.81,SSW,210,0.0,0.0,96,0.00,,,0.00,Wunderground v.1.15,2013-07-12 13:00:00,
2013-07-12 09:10:00,71.2,69.4,29.81,SSW,210,0.0,0.0,94,0.00,,,0.00,Wunderground v.1.15,2013-07-12 13:10:00,
2013-07-12 09:15:00,71.5,70.0,29.82,SSW,210,0.0,0.0,95,0.00,,,0.00,Wunderground v.1.15,2013-07-12 13:15:00,
2013-07-12 09:25:00,72.7,70.9,29.82,SSW,210,0.0,0.0,94,0.00,,,0.00,Wunderground v.1.15,2013-07-12 13:25:00,
2013-07-12 09:35:00,73.1,71.0,29.81,SSW,198,0.0,0.0,93,0.00,,,0.00,Wunderground v.1.15,2013-07-12 13:35:00,
2013-07-12 09:40:00,73.6,71.8,29.81,SSW,198,0.0,0.0,94,0.00,,,0.00,Wunderground v.1.15,2013-07-12 13:40:00,
2013-07-12 09:50:00,74.5,71.7,29.81,SSW,198,0.0,0.0,91,0.00,,,0.00,Wunderground v.1.15,2013-07-12 13:50:00,
2013-07-12 10:00:00,74.6,70.5,29.82,SSW,198,0.0,0.0,87,0.00,,,0.00,Wunderground v.1.15,2013-07-12 14:00:00,
2013-07-12 10:10:00,75.0,71.5,29.82,SSW,195,0.0,0.0,89,0.00,,,0.00,Wunderground v.1.15,2013-07-12 14:10:00,
2013-07-12 10:20:00,75.7,71.9,29.82,South,190,0.0,0.0,88,0.00,,,0.00,Wunderground v.1.15,2013-07-12 14:20:00,
2013-07-12 10:30:00,75.4,70.6,29.82,SSW,208,0.0,0.0,85,0.00,,,0.00,Wunderground v.1.15,2013-07-12 14:30:00,
2013-07-12 10:40:00,76.5,71.7,29.82,SSW,200,0.0,0.0,85,0.00,,,0.00,Wunderground v.1.15,2013-07-12 14:40:00,
2013-07-12 10:50:00,77.4,71.8,29.82,SE,139,0.0,0.0,83,0.00,,,0.00,Wunderground v.1.15,2013-07-12 14:50:00,
2013-07-12 11:00:00,78.9,71.5,29.81,ESE,117,0.0,0.0,78,0.00,,,0.00,Wunderground v.1.15,2013-07-12 15:00:00,
2013-07-12 11:10:00,78.5,70.7,29.81,SSW,203,3.0,3.0,77,0.00,,,0.00,Wunderground v.1.15,2013-07-12 15:10:00,
2013-07-12 11:20:00,78.6,70.4,29.81,SSW,206,5.0,5.0,76,0.00,,,0.00,Wunderground v.1.15,2013-07-12 15:20:00,
2013-07-12 11:30:00,78.7,69.7,29.82,SSW,209,5.0,6.0,74,0.00,,,0.00,Wunderground v.1.15,2013-07-12 15:30:00,
2013-07-12 11:40:00,79.6,70.6,29.81,SW,222,4.0,8.0,74,0.00,,,0.00,Wunderground v.1.15,2013-07-12 15:40:00,
2013-07-12 11:45:00,79.6,70.2,29.81,SSW,208,6.0,8.0,73,0.00,,,0.00,Wunderground v.1.15,2013-07-12 15:45:00,
2013-07-12 11:55:00,79.9,70.5,29.82,SSW,211,4.0,8.0,73,0.00,,,0.00,Wunderground v.1.15,2013-07-12 15:55:00,
2013-07-12 12:00:00,80.2,71.6,29.82,SSE,153,2.0,4.0,75,0.00,,,0.00,Wunderground v.1.15,2013-07-12 16:00:00,
2013-07-12 12:10:00,81.5,72.0,29.81,ESE,108,0.0,0.0,73,0.00,,,0.00,Wunderground v.1.15,2013-07-12 16:10:00,
2013-07-12 12:20:00,82.0,70.8,29.81,SSW,211,3.0,3.0,69,0.00,,,0.00,Wunderground v.1.15,2013-07-12 16:20:00,
2013-07-12 12:30:00,81.7,70.5,29.80,SSW,211,4.0,7.0,69,0.00,,,0.00,Wunderground v.1.15,2013-07-12 16:30:00,
2013-07-12 12:40:00,81.4,70.2,29.80,SSW,202,5.0,5.0,69,0.00,,,0.00,Wunderground v.1.15,2013-07-12 16:40:00,
2013-07-12 12:50:00,81.3,70.6,29.81,SSW,193,6.0,12.0,70,0.00,,,0.00,Wunderground v.1.15,2013-07-12 16:50:00,
2013-07-12 12:56:00,80.6,71.5,29.81,SW,217,6.0,12.0,74,0.00,,,0.00,Wunderground v.1.15,2013-07-12 16:56:00,
2013-07-12 13:05:00,79.7,71.5,29.81,SSW,200,5.0,10.0,76,0.00,,,0.00,Wunderground v.1.15,2013-07-12 17:05:00,
2013-07-12 13:11:00,79.8,71.2,29.80,SSE,159,6.0,6.0,75,0.00,,,0.00,Wunderground v.1.15,2013-07-12 17:11:00,
2013-07-12 13:16:00,79.7,71.1,29.80,SSW,206,5.0,7.0,75,0.00,,,0.00,Wunderground v.1.15,2013-07-12 17:16:00,
2013-07-12 13:25:00,78.4,71.0,29.81,SW,218,5.0,5.0,78,0.00,,,0.01,Wunderground v.1.15,2013-07-12 17:25:00,
2013-07-12 13:31:00,77.0,70.7,29.82,East,82,3.0,3.0,81,0.85,,,0.11,Wunderground v.1.15,2013-07-12 17:31:00,
2013-07-12 13:40:00,74.7,70.2,29.81,ENE,65,0.0,0.0,86,0.29,,,0.23,Wunderground v.1.15,2013-07-12 17:40:00,
2013-07-12 13:52:00,74.0,70.9,29.80,East,86,0.0,0.0,90,0.07,,,0.25,Wunderground v.1.15,2013-07-12 17:52:00,
2013-07-12 14:00:00,74.6,71.1,29.80,East,87,0.0,0.0,89,0.00,,,0.25,Wunderground v.1.15,2013-07-12 18:00:00,
2013-07-12 14:10:00,75.5,72.0,29.80,East,90,0.0,0.0,89,0.00,,,0.25,Wunderground v.1.15,2013-07-12 18:10:00,
2013-07-12 14:15:00,76.0,72.2,29.80,East,90,0.0,0.0,88,0.00,,,0.25,Wunderground v.1.15,2013-07-12 18:15:00,
2013-07-12 14:21:00,76.7,72.5,29.80,ESE,103,0.0,0.0,87,0.00,,,0.25,Wunderground v.1.15,2013-07-12 18:21:00,
2013-07-12 14:32:00,77.8,73.3,29.79,SSW,200,0.0,0.0,86,0.00,,,0.25,Wunderground v.1.15,2013-07-12 18:32:00,
2013-07-12 14:40:00,78.5,73.3,29.80,South,175,0.0,0.0,84,0.00,,,0.25,Wunderground v.1.15,2013-07-12 18:40:00,
2013-07-12 14:46:00,78.2,71.9,29.80,SW,214,0.0,2.0,81,0.00,,,0.25,Wunderground v.1.15,2013-07-12 18:46:00,
2013-07-12 14:55:00,77.6,72.0,29.81,SE,131,1.0,1.0,83,0.00,,,0.26,Wunderground v.1.15,2013-07-12 18:55:00,
2013-07-12 15:00:00,77.2,72.0,29.81,SE,136,0.0,0.0,84,0.42,,,0.29,Wunderground v.1.15,2013-07-12 19:00:00,
2013-07-12 15:10:00,76.5,72.3,29.81,SE,136,0.0,0.0,87,0.11,,,0.31,Wunderground v.1.15,2013-07-12 19:10:00,
2013-07-12 15:15:00,76.2,72.7,29.80,SE,136,0.0,0.0,89,0.31,,,0.33,Wunderground v.1.15,2013-07-12 19:15:00,
2013-07-12 15:20:00,76.1,73.0,29.81,SE,136,0.0,0.0,90,0.09,,,0.33,Wunderground v.1.15,2013-07-12 19:20:00,
2013-07-12 15:30:00,75.4,72.3,29.79,NNE,23,0.0,0.0,90,0.04,,,0.33,Wunderground v.1.15,2013-07-12 19:30:00,
2013-07-12 15:35:00,75.2,72.4,29.80,NNE,23,0.0,0.0,91,0.00,,,0.33,Wunderground v.1.15,2013-07-12 19:35:00,
2013-07-12 15:40:00,75.2,72.7,29.79,NNE,23,0.0,0.0,92,0.00,,,0.33,Wunderground v.1.15,2013-07-12 19:40:00,
2013-07-12 15:45:00,75.1,72.6,29.79,NNE,23,0.0,0.0,92,0.00,,,0.33,Wunderground v.1.15,2013-07-12 19:45:00,
2013-07-12 15:50:00,75.1,72.9,29.80,NNE,23,0.0,0.0,93,0.00,,,0.33,Wunderground v.1.15,2013-07-12 19:50:00,
2013-07-12 15:55:00,74.9,72.7,29.80,NNE,24,0.0,0.0,93,0.00,,,0.33,Wunderground v.1.15,2013-07-12 19:55:00,
2013-07-12 16:00:00,74.8,73.0,29.79,NNE,29,0.0,0.0,94,0.00,,,0.33,Wunderground v.1.15,2013-07-12 20:00:00,
2013-07-12 16:11:00,74.6,72.4,29.79,NNE,29,0.0,0.0,93,0.00,,,0.33,Wunderground v.1.15,2013-07-12 20:11:00,
2013-07-12 16:20:00,74.4,72.2,29.80,NNE,29,0.0,0.0,93,0.00,,,0.33,Wunderground v.1.15,2013-07-12 20:20:00,
2013-07-12 16:26:00,74.3,72.1,29.79,NNE,29,0.0,0.0,93,0.00,,,0.33,Wunderground v.1.15,2013-07-12 20:26:00,
2013-07-12 16:31:00,74.3,72.5,29.79,NNE,29,0.0,0.0,94,0.00,,,0.33,Wunderground v.1.15,2013-07-12 20:31:00,
2013-07-12 16:40:00,74.3,72.5,29.80,NNE,29,0.0,0.0,94,0.00,,,0.33,Wunderground v.1.15,2013-07-12 20:40:00,
2013-07-12 16:45:00,74.2,72.4,29.79,NNE,29,0.0,0.0,94,0.00,,,0.33,Wunderground v.1.15,2013-07-12 20:45:00,
2013-07-12 16:50:00,74.1,72.3,29.79,NNE,29,0.0,0.0,94,0.00,,,0.33,Wunderground v.1.15,2013-07-12 20:50:00,
2013-07-12 16:55:00,74.0,72.2,29.80,NNE,29,0.0,0.0,94,0.00,,,0.33,Wunderground v.1.15,2013-07-12 20:55:00,
2013-07-12 17:02:00,73.9,72.1,29.80,NNE,29,0.0,0.0,94,0.00,,,0.33,Wunderground v.1.15,2013-07-12 21:02:00,
2013-07-12 17:10:00,73.8,72.0,29.80,NNE,29,0.0,0.0,94,0.00,,,0.33,Wunderground v.1.15,2013-07-12 21:10:00,
2013-07-12 17:15:00,73.8,72.0,29.80,NNE,29,0.0,0.0,94,0.00,,,0.33,Wunderground v.1.15,2013-07-12 21:15:00,
2013-07-12 17:20:00,73.5,71.4,29.80,East,98,0.0,0.0,93,0.00,,,0.33,Wunderground v.1.15,2013-07-12 21:20:00,
2013-07-12 17:25:00,73.4,71.3,29.80,East,98,0.0,0.0,93,0.00,,,0.33,Wunderground v.1.15,2013-07-12 21:25:00,
2013-07-12 17:30:00,73.3,71.5,29.81,East,98,0.0,0.0,94,0.00,,,0.33,Wunderground v.1.15,2013-07-12 21:30:00,
2013-07-12 17:35:00,73.4,71.6,29.81,East,98,0.0,0.0,94,0.00,,,0.33,Wunderground v.1.15,2013-07-12 21:35:00,
2013-07-12 17:40:00,73.3,71.5,29.81,East,98,0.0,0.0,94,0.00,,,0.33,Wunderground v.1.15,2013-07-12 21:40:00,
2013-07-12 17:50:00,73.3,71.8,29.81,East,98,0.0,0.0,95,0.00,,,0.33,Wunderground v.1.15,2013-07-12 21:50:00,
2013-07-12 17:55:00,73.3,71.8,29.81,East,98,0.0,0.0,95,0.00,,,0.33,Wunderground v.1.15,2013-07-12 21:55:00,
2013-07-12 18:00:00,73.3,71.8,29.82,East,98,0.0,0.0,95,0.00,,,0.33,Wunderground v.1.15,2013-07-12 22:00:00,
2013-07-12 18:05:00,73.3,71.8,29.82,East,98,0.0,0.0,95,0.00,,,0.33,Wunderground v.1.15,2013-07-12 22:05:00,
2013-07-12 18:15:00,73.2,71.7,29.81,East,98,0.0,0.0,95,0.00,,,0.33,Wunderground v.1.15,2013-07-12 22:15:00,
2013-07-12 18:20:00,73.3,71.8,29.82,East,98,0.0,0.0,95,0.00,,,0.33,Wunderground v.1.15,2013-07-12 22:20:00,
2013-07-12 18:25:00,73.2,71.7,29.82,East,98,0.0,0.0,95,0.00,,,0.33,Wunderground v.1.15,2013-07-12 22:25:00,
2013-07-12 18:31:00,73.2,71.7,29.82,East,98,0.0,0.0,95,0.00,,,0.33,Wunderground v.1.15,2013-07-12 22:31:00,
2013-07-12 18:40:00,73.2,71.7,29.82,East,98,0.0,0.0,95,0.00,,,0.33,Wunderground v.1.15,2013-07-12 22:40:00,
2013-07-12 18:45:00,73.2,71.4,29.82,East,98,0.0,0.0,94,0.00,,,0.33,Wunderground v.1.15,2013-07-12 22:45:00,
2013-07-12 18:55:00,73.1,71.3,29.82,South,183,0.0,0.0,94,0.00,,,0.33,Wunderground v.1.15,2013-07-12 22:55:00,
2013-07-12 19:01:00,72.9,70.8,29.82,SSW,208,0.0,0.0,93,0.00,,,0.33,Wunderground v.1.15,2013-07-12 23:01:00,
2013-07-12 19:10:00,72.9,70.4,29.82,SSW,199,0.0,0.0,92,0.00,,,0.33,Wunderground v.1.15,2013-07-12 23:10:00,
2013-07-12 19:15:00,72.9,70.4,29.82,SSW,199,0.0,0.0,92,0.00,,,0.33,Wunderground v.1.15,2013-07-12 23:15:00,
2013-07-12 19:20:00,72.8,70.3,29.82,SW,217,0.0,0.0,92,0.00,,,0.33,Wunderground v.1.15,2013-07-12 23:20:00,
2013-07-12 19:31:00,72.6,69.8,29.82,SW,222,0.0,0.0,91,0.00,,,0.33,Wunderground v.1.15,2013-07-12 23:31:00,
2013-07-12 19:40:00,72.4,69.6,29.83,SSW,208,0.0,0.0,91,0.00,,,0.33,Wunderground v.1.15,2013-07-12 23:40:00,
2013-07-12 19:45:00,72.4,69.6,29.84,SSW,208,0.0,0.0,91,0.00,,,0.33,Wunderground v.1.15,2013-07-12 23:45:00,
2013-07-12 19:50:00,72.3,69.5,29.84,SSW,207,0.0,0.0,91,0.00,,,0.33,Wunderground v.1.15,2013-07-12 23:50:00,
2013-07-12 19:55:00,72.1,69.3,29.84,SSW,211,0.0,0.0,91,0.00,,,0.33,Wunderground v.1.15,2013-07-12 23:55:00,
2013-07-12 20:05:00,71.8,69.0,29.83,SSW,211,0.0,0.0,91,0.00,,,0.33,Wunderground v.1.15,2013-07-13 00:05:00,
2013-07-12 20:10:00,71.6,68.8,29.83,SSW,211,0.0,0.0,91,0.00,,,0.33,Wunderground v.1.15,2013-07-13 00:10:00,
2013-07-12 20:15:00,71.5,68.7,29.83,SSW,211,0.0,0.0,91,0.00,,,0.33,Wunderground v.1.15,2013-07-13 00:15:00,
2013-07-12 20:20:00,71.4,68.6,29.84,SSW,211,0.0,0.0,91,0.00,,,0.33,Wunderground v.1.15,2013-07-13 00:20:00,
2013-07-12 20:26:00,71.5,69.1,29.84,SSW,212,0.0,0.0,92,0.00,,,0.33,Wunderground v.1.15,2013-07-13 00:26:00,
2013-07-12 20:35:00,70.5,65.4,29.85,NNE,12,0.0,0.0,84,0.00,,,0.33,Wunderground v.1.15,2013-07-13 00:35:00,
2013-07-12 20:40:00,70.0,65.6,29.85,NNW,341,0.0,0.0,86,0.00,,,0.33,Wunderground v.1.15,2013-07-13 00:40:00,
2013-07-12 20:51:00,69.0,65.9,29.85,NNE,17,6.0,7.0,90,0.00,,,0.34,Wunderground v.1.15,2013-07-13 00:51:00,
2013-07-12 21:00:00,67.6,64.9,29.87,NNE,23,11.0,11.0,91,6.94,,,0.75,Wunderground v.1.15,2013-07-13 01:00:00,
2013-07-12 21:05:00,67.4,65.6,29.89,SSW,209,11.0,11.0,94,6.19,,,1.05,Wunderground v.1.15,2013-07-13 01:05:00,
2013-07-12 21:15:00,65.3,62.9,29.87,SSW,208,8.0,11.0,92,1.37,,,1.54,Wunderground v.1.15,2013-07-13 01:15:00,
2013-07-12 21:20:00,65.1,63.0,29.87,SSW,213,6.0,6.0,93,0.32,,,1.60,Wunderground v.1.15,2013-07-13 01:20:00,
2013-07-12 21:25:00,65.4,63.9,29.87,SSW,212,4.0,7.0,95,0.40,,,1.63,Wunderground v.1.15,2013-07-13 01:25:00,
2013-07-12 21:35:00,65.9,64.1,29.87,East,100,6.0,9.0,94,0.42,,,1.68,Wunderground v.1.15,2013-07-13 01:35:00,
2013-07-12 21:45:00,65.6,63.8,29.88,SSW,212,1.0,3.0,94,0.83,,,1.73,Wunderground v.1.15,2013-07-13 01:45:00,
2013-07-12 21:50:00,65.4,63.9,29.87,SSW,193,2.0,5.0,95,0.34,,,1.76,Wunderground v.1.15,2013-07-13 01:50:00,
2013-07-12 22:00:00,66.1,64.9,29.87,SSW,212,2.0,2.0,96,0.06,,,1.77,Wunderground v.1.15,2013-07-13 02:00:00,
2013-07-12 22:05:00,66.6,65.4,29.87,ENE,57,2.0,4.0,96,0.04,,,1.77,Wunderground v.1.15,2013-07-13 02:05:00,
2013-07-12 22:10:00,67.0,65.8,29.87,ENE,57,2.0,2.0,96,0.00,,,1.77,Wunderground v.1.15,2013-07-13 02:10:00,
2013-07-12 22:15:00,67.1,65.9,29.89,ENE,57,1.0,2.0,96,0.00,,,1.78,Wunderground v.1.15,2013-07-13 02:15:00,
2013-07-12 22:20:00,66.8,65.6,29.89,ENE,57,0.0,0.0,96,0.00,,,1.78,Wunderground v.1.15,2013-07-13 02:20:00,
2013-07-12 22:30:00,66.3,65.1,29.90,NE,38,3.0,3.0,96,0.00,,,1.78,Wunderground v.1.15,2013-07-13 02:30:00,
2013-07-12 22:35:00,66.2,65.0,29.90,NE,38,3.0,3.0,96,0.00,,,1.78,Wunderground v.1.15,2013-07-13 02:35:00,
2013-07-12 22:40:00,66.1,64.9,29.90,NE,38,1.0,1.0,96,0.00,,,1.78,Wunderground v.1.15,2013-07-13 02:40:00,
2013-07-12 22:46:00,66.1,64.9,29.91,NE,38,0.0,1.0,96,0.00,,,1.78,Wunderground v.1.15,2013-07-13 02:46:00,
2013-07-12 22:55:00,66.1,64.9,29.92,NE,38,0.0,0.0,96,0.00,,,1.78,Wunderground v.1.15,2013-07-13 02:55:00,
2013-07-12 23:05:00,66.0,64.8,29.92,NE,38,0.0,0.0,96,0.00,,,1.78,Wunderground v.1.15,2013-07-13 03:05:00,
2013-07-12 23:10:00,66.0,64.8,29.91,NE,36,1.0,6.0,96,0.00,,,1.79,Wunderground v.1.15,2013-07-13 03:10:00,
2013-07-12 23:16:00,66.0,64.8,29.91,NE,36,3.0,6.0,96,0.07,,,1.79,Wunderground v.1.15,2013-07-13 03:16:00,
2013-07-12 23:25:00,66.2,65.0,29.91,NE,40,2.0,4.0,96,0.14,,,1.82,Wunderground v.1.15,2013-07-13 03:25:00,
2013-07-12 23:31:00,66.2,65.0,29.91,NE,40,1.0,1.0,96,0.20,,,1.84,Wunderground v.1.15,2013-07-13 03:31:00,
2013-07-12 23:40:00,65.9,64.7,29.92,NNE,28,0.0,0.0,96,0.18,,,1.87,Wunderground v.1.15,2013-07-13 03:40:00,
2013-07-12 23:50:00,65.9,64.7,29.92,NNE,28,0.0,2.0,96,0.05,,,1.87,Wunderground v.1.15,2013-07-13 03:50:00,
2013-07-12 23:57:00,65.9,64.7,29.92,ENE,72,1.0,2.0,96,0.05,,,1.88,Wunderground v.1.15,2013-07-13 03:57:00,